UAE5AM NZAA-OMDB

Flight info

Callsign UAE5AM
Flight time N/A
Altitude 34000
Route MADEP N774 TESAT A576 PKS/N0490F360 J141 LEC T21 KADUN/N0483F380 T21 PD N509 MUTMI/N0466F400 N509 ELATI N640 KAT R461 MDI M300 EMURU P570 MIXAM/N0335F200 P574 DAPOK T508 SOLUD P574 IMPED
Aircraft A388/J-SADE2E3FGHIJ3J4J5M1RWXY/LB1D1

Departure

Time N/A
Airport Auckland International Airport (NZAA)

Arrival

Time 2026-05-04 13:33
Airport Dubai International Airport (OMDB)
Time Latitude Longitude Altitude Speed Heading
2026-05-04 11:43 17.27726 66.33446 39790 ft 479 kts 303°
2026-05-04 11:44 17.29544 66.30518 39790 ft 479 kts 303°
2026-05-04 11:44 17.33169 66.24673 39788 ft 479 kts 303°
2026-05-04 11:45 17.36798 66.18817 39792 ft 480 kts 303°
2026-05-04 11:45 17.40423 66.12963 39800 ft 479 kts 303°
2026-05-04 11:46 17.44046 66.07107 39799 ft 479 kts 303°
2026-05-04 11:46 17.47666 66.01250 39799 ft 479 kts 303°
2026-05-04 11:47 17.51293 65.95377 39789 ft 480 kts 303°
2026-05-04 11:47 17.54918 65.89503 39789 ft 480 kts 302°
2026-05-04 11:48 17.58541 65.83627 39797 ft 480 kts 302°
2026-05-04 11:48 17.62161 65.77754 39808 ft 479 kts 302°
2026-05-04 11:49 17.65873 65.71949 39803 ft 480 kts 304°
2026-05-04 11:49 17.69626 65.66161 39791 ft 480 kts 304°
2026-05-04 11:50 17.72730 65.61347 39796 ft 480 kts 303°
2026-05-04 11:50 17.76458 65.55544 39783 ft 480 kts 303°
2026-05-04 11:51 17.80187 65.49734 39799 ft 480 kts 303°
2026-05-04 11:51 17.83914 65.43920 39788 ft 480 kts 303°
2026-05-04 11:52 17.87635 65.38111 39806 ft 479 kts 303°
2026-05-04 11:52 17.91350 65.32307 39801 ft 479 kts 303°
2026-05-04 11:53 17.95068 65.26493 39790 ft 479 kts 303°
2026-05-04 11:53 17.98780 65.20682 39772 ft 480 kts 303°
2026-05-04 11:55 18.13596 64.97441 39798 ft 479 kts 303°
2026-05-04 11:56 18.17296 64.91623 39780 ft 479 kts 303°
2026-05-04 11:56 18.20998 64.85799 39796 ft 478 kts 303°
2026-05-04 11:57 18.24695 64.79976 39781 ft 479 kts 303°
2026-05-04 11:57 18.28395 64.74143 39787 ft 479 kts 303°
2026-05-04 11:58 18.32089 64.68314 39781 ft 479 kts 303°
2026-05-04 11:58 18.35782 64.62482 39794 ft 478 kts 303°
2026-05-04 11:59 18.39470 64.56652 39790 ft 478 kts 303°
2026-05-04 11:59 18.43154 64.50823 39778 ft 478 kts 303°
2026-05-04 12:00 18.46838 64.44989 39781 ft 478 kts 303°
2026-05-04 12:00 18.50516 64.39160 39782 ft 478 kts 303°
2026-05-04 12:01 18.54194 64.33325 39788 ft 478 kts 303°
2026-05-04 12:02 18.67045 64.12895 39776 ft 478 kts 303°
2026-05-04 12:03 18.70713 64.07052 39764 ft 478 kts 303°
2026-05-04 12:03 18.74378 64.01207 39767 ft 478 kts 303°
2026-05-04 12:04 18.78042 63.95360 39775 ft 477 kts 303°
2026-05-04 12:04 18.81677 63.89552 39773 ft 477 kts 303°
2026-05-04 12:05 18.85335 63.83703 39776 ft 478 kts 303°
2026-05-04 12:05 18.88991 63.77853 39776 ft 477 kts 303°
2026-05-04 12:06 18.92647 63.71995 39767 ft 478 kts 303°
2026-05-04 12:06 18.96302 63.66135 39765 ft 478 kts 303°
2026-05-04 12:07 18.99956 63.60273 39778 ft 478 kts 303°
2026-05-04 12:07 19.03605 63.54409 39773 ft 478 kts 303°
2026-05-04 12:08 19.07255 63.48541 39780 ft 478 kts 303°
2026-05-04 12:08 19.10904 63.42674 39770 ft 478 kts 303°
2026-05-04 12:09 19.14552 63.36801 39774 ft 478 kts 303°
2026-05-04 12:09 19.18196 63.30928 39765 ft 478 kts 303°
2026-05-04 12:10 19.21838 63.25052 39773 ft 478 kts 303°
2026-05-04 12:10 19.25479 63.19174 39775 ft 478 kts 303°
2026-05-04 12:11 19.29118 63.13292 39769 ft 477 kts 302°
2026-05-04 12:11 19.32752 63.07413 39768 ft 477 kts 302°
2026-05-04 12:12 19.36384 63.01530 39770 ft 477 kts 302°
2026-05-04 12:12 19.40015 62.95645 39770 ft 477 kts 302°
2026-05-04 12:14 19.54479 62.72141 39769 ft 476 kts 302°
2026-05-04 12:15 19.58097 62.66249 39768 ft 477 kts 302°
2026-05-04 12:15 19.61707 62.60362 39758 ft 476 kts 302°
2026-05-04 12:16 19.65314 62.54475 39756 ft 476 kts 302°
2026-05-04 12:16 19.68920 62.48585 39761 ft 476 kts 302°
2026-05-04 12:17 19.72525 62.42689 39753 ft 476 kts 302°
2026-05-04 12:17 19.76126 62.36795 39759 ft 476 kts 302°
2026-05-04 12:18 19.79724 62.30899 39746 ft 476 kts 302°
2026-05-04 12:18 19.83321 62.25000 39754 ft 476 kts 302°
2026-05-04 12:19 19.86917 62.19097 39740 ft 476 kts 302°
2026-05-04 12:19 19.90510 62.13191 39749 ft 476 kts 302°
2026-05-04 12:20 19.94104 62.07280 39754 ft 476 kts 302°
2026-05-04 12:20 19.97696 62.01365 39752 ft 476 kts 302°
2026-05-04 12:21 20.01290 61.95441 39749 ft 476 kts 302°
2026-05-04 12:21 20.04856 61.89556 39751 ft 477 kts 302°
2026-05-04 12:22 20.08441 61.83635 39754 ft 476 kts 302°
2026-05-04 12:22 20.12027 61.77707 39750 ft 476 kts 302°
2026-05-04 12:23 20.15606 61.71782 39749 ft 476 kts 302°
2026-05-04 12:23 20.19192 61.65843 39747 ft 476 kts 302°
2026-05-04 12:24 20.22767 61.59914 39748 ft 476 kts 302°
2026-05-04 12:24 20.26346 61.53973 39743 ft 476 kts 302°
2026-05-04 12:25 20.29919 61.48035 39754 ft 476 kts 302°
2026-05-04 12:25 20.33488 61.42099 39750 ft 475 kts 301°
2026-05-04 12:26 20.37052 61.36164 39748 ft 475 kts 301°
2026-05-04 12:26 20.40613 61.30229 39740 ft 475 kts 301°
2026-05-04 12:27 20.44170 61.24294 39735 ft 475 kts 301°
2026-05-04 12:27 20.47725 61.18355 39736 ft 475 kts 301°
2026-05-04 12:28 20.51276 61.12419 39742 ft 475 kts 301°
2026-05-04 12:28 20.54823 61.06482 39740 ft 474 kts 301°
2026-05-04 12:29 20.58366 61.00548 39737 ft 474 kts 301°
2026-05-04 12:29 20.61968 60.94712 39733 ft 474 kts 306°
2026-05-04 12:30 20.66223 60.89321 39733 ft 475 kts 309°
2026-05-04 12:30 20.70513 60.83953 39728 ft 475 kts 309°
2026-05-04 12:31 20.74795 60.78585 39733 ft 475 kts 309°
2026-05-04 12:31 20.79079 60.73214 39731 ft 474 kts 309°
2026-05-04 12:32 20.85496 60.65161 39731 ft 474 kts 309°
2026-05-04 12:33 20.89772 60.59788 39727 ft 474 kts 309°
2026-05-04 12:33 20.94044 60.54415 39726 ft 474 kts 309°
2026-05-04 12:34 20.98315 60.49038 39724 ft 474 kts 309°
2026-05-04 12:34 21.02582 60.43661 39727 ft 474 kts 309°
2026-05-04 12:35 21.06845 60.38284 39717 ft 474 kts 309°
2026-05-04 12:35 21.11102 60.32909 39715 ft 474 kts 309°
2026-05-04 12:36 21.15362 60.27526 39720 ft 473 kts 309°
2026-05-04 12:36 21.19620 60.22139 39727 ft 473 kts 309°
2026-05-04 12:37 21.23873 60.16754 39715 ft 473 kts 309°
2026-05-04 12:37 21.28129 60.11371 39720 ft 473 kts 309°
2026-05-04 12:38 21.32384 60.05994 39712 ft 473 kts 309°
2026-05-04 12:38 21.35921 60.01519 39713 ft 473 kts 309°
2026-05-04 12:39 21.40174 59.96132 39714 ft 473 kts 309°
2026-05-04 12:39 21.44422 59.90746 39708 ft 473 kts 309°
2026-05-04 12:40 21.48669 59.85357 39709 ft 473 kts 309°
2026-05-04 12:40 21.52908 59.79971 39714 ft 472 kts 309°
2026-05-04 12:41 21.57150 59.74574 39712 ft 472 kts 309°
2026-05-04 12:41 21.61370 59.69172 39715 ft 472 kts 309°
2026-05-04 12:42 21.65593 59.63763 39710 ft 472 kts 309°
2026-05-04 12:42 21.69813 59.58355 39726 ft 472 kts 309°
2026-05-04 12:43 21.74026 59.52951 39730 ft 471 kts 309°
2026-05-04 12:43 21.78209 59.47579 39720 ft 471 kts 309°
2026-05-04 12:44 21.82414 59.42173 39730 ft 471 kts 309°
2026-05-04 12:44 21.86620 59.36762 39725 ft 471 kts 309°
2026-05-04 12:45 21.90826 59.31345 39727 ft 471 kts 309°
2026-05-04 12:45 21.95028 59.25927 39724 ft 471 kts 309°
2026-05-04 12:46 21.99222 59.20515 39732 ft 470 kts 309°
2026-05-04 12:46 22.03403 59.15113 39744 ft 469 kts 309°
2026-05-04 12:47 22.07583 59.09707 39705 ft 469 kts 309°
2026-05-04 12:47 22.11762 59.04298 39710 ft 469 kts 309°
2026-05-04 12:48 22.15934 58.98892 39692 ft 469 kts 309°
2026-05-04 12:48 22.20141 58.93499 39695 ft 470 kts 312°
2026-05-04 12:49 22.24936 58.88692 39703 ft 472 kts 321°
2026-05-04 12:49 22.30384 58.84728 39703 ft 473 kts 328°
2026-05-04 12:50 22.36014 58.81033 39702 ft 474 kts 327°
2026-05-04 12:50 22.41643 58.77318 39705 ft 474 kts 327°
2026-05-04 12:51 22.47280 58.73605 39716 ft 475 kts 327°
2026-05-04 12:51 22.52919 58.69890 39721 ft 475 kts 327°
2026-05-04 12:52 22.58524 58.66195 39740 ft 475 kts 327°
2026-05-04 12:52 22.64167 58.62470 39744 ft 475 kts 327°
2026-05-04 12:53 22.69806 58.58745 39742 ft 475 kts 327°
2026-05-04 12:53 22.75442 58.55019 39732 ft 475 kts 327°
2026-05-04 12:54 22.81076 58.51291 39733 ft 474 kts 327°
2026-05-04 12:54 22.86697 58.47569 39761 ft 474 kts 327°
2026-05-04 12:55 22.92324 58.43838 39768 ft 474 kts 327°
2026-05-04 12:55 22.97946 58.40107 39761 ft 473 kts 327°
2026-05-04 12:56 23.03563 58.36375 39762 ft 473 kts 327°
2026-05-04 12:56 23.09169 58.32645 39787 ft 473 kts 326°
2026-05-04 12:57 23.14773 58.28912 39771 ft 472 kts 326°
2026-05-04 12:57 23.20368 58.25181 39770 ft 471 kts 326°
2026-05-04 12:58 23.25924 58.21473 39763 ft 471 kts 326°
2026-05-04 12:58 23.31507 58.17742 39747 ft 471 kts 326°
2026-05-04 12:59 23.37088 58.14010 39744 ft 471 kts 326°
2026-05-04 12:59 23.42660 58.10279 39750 ft 470 kts 326°
2026-05-04 13:00 23.48235 58.06543 39748 ft 470 kts 326°
2026-05-04 13:00 23.53793 58.02814 39762 ft 470 kts 326°
2026-05-04 13:01 23.59353 57.99079 39738 ft 469 kts 326°
2026-05-04 13:01 23.64880 57.95305 39730 ft 467 kts 322°
2026-05-04 13:02 23.69900 57.90849 39719 ft 464 kts 314°
2026-05-04 13:02 23.74216 57.85646 39716 ft 461 kts 306°
2026-05-04 13:03 23.78182 57.80138 39725 ft 461 kts 307°
2026-05-04 13:03 23.82160 57.74647 39716 ft 461 kts 306°
2026-05-04 13:04 23.86090 57.69195 39711 ft 460 kts 306°
2026-05-04 13:04 23.90043 57.63699 39705 ft 460 kts 306°
2026-05-04 13:05 23.93990 57.58204 39697 ft 459 kts 306°
2026-05-04 13:05 23.97935 57.52707 39706 ft 459 kts 306°
2026-05-04 13:06 24.01874 57.47209 39707 ft 459 kts 306°
2026-05-04 13:06 24.05810 57.41711 39703 ft 459 kts 306°
2026-05-04 13:07 24.09741 57.36213 39695 ft 459 kts 306°
2026-05-04 13:07 24.13664 57.30722 39498 ft 455 kts 306°
2026-05-04 13:07 24.15610 57.27995 38523 ft 458 kts 306°
2026-05-04 13:08 24.17585 57.25224 37070 ft 465 kts 306°
2026-05-04 13:08 24.19582 57.22421 35745 ft 468 kts 306°
2026-05-04 13:08 24.21590 57.19603 34474 ft 470 kts 306°
2026-05-04 13:08 24.23601 57.16780 33098 ft 471 kts 306°
2026-05-04 13:09 24.25610 57.13956 31925 ft 467 kts 306°
2026-05-04 13:09 24.27587 57.11178 31041 ft 458 kts 306°
2026-05-04 13:09 24.29518 57.08465 30558 ft 445 kts 306°
2026-05-04 13:09 24.31411 57.05801 29737 ft 443 kts 306°
2026-05-04 13:10 24.33296 57.03144 28993 ft 437 kts 306°
2026-05-04 13:10 24.35134 57.00555 28524 ft 425 kts 306°
2026-05-04 13:10 24.36940 56.98009 27887 ft 419 kts 306°
2026-05-04 13:10 24.38711 56.95509 27263 ft 413 kts 306°
2026-05-04 13:11 24.40461 56.93039 26644 ft 407 kts 306°
2026-05-04 13:11 24.42189 56.90598 26010 ft 403 kts 306°
2026-05-04 13:11 24.43896 56.88186 25413 ft 399 kts 306°
2026-05-04 13:11 24.45590 56.85791 24803 ft 396 kts 307°
2026-05-04 13:12 24.47272 56.83412 24197 ft 393 kts 307°
2026-05-04 13:12 24.48943 56.81047 23590 ft 391 kts 307°
2026-05-04 13:12 24.50609 56.78688 22926 ft 390 kts 307°
2026-05-04 13:12 24.52262 56.76346 22297 ft 386 kts 307°
2026-05-04 13:13 24.53898 56.74028 21745 ft 382 kts 307°
2026-05-04 13:13 24.55531 56.71716 21603 ft 383 kts 308°
2026-05-04 13:13 24.57163 56.69410 21099 ft 383 kts 308°
2026-05-04 13:13 24.58801 56.67094 20502 ft 382 kts 308°
2026-05-04 13:14 24.60418 56.64807 20252 ft 378 kts 308°
2026-05-04 13:14 24.62035 56.62518 19967 ft 378 kts 308°
2026-05-04 13:14 24.63645 56.60238 19625 ft 376 kts 308°
2026-05-04 13:14 24.65246 56.57968 19275 ft 374 kts 309°
2026-05-04 13:15 24.66831 56.55722 18936 ft 371 kts 309°
2026-05-04 13:15 24.68407 56.53486 18592 ft 369 kts 309°
2026-05-04 13:15 24.69978 56.51257 18273 ft 369 kts 309°
2026-05-04 13:15 24.71545 56.49031 17901 ft 367 kts 309°
2026-05-04 13:16 24.73102 56.46817 17570 ft 365 kts 309°
2026-05-04 13:16 24.74655 56.44609 17223 ft 363 kts 309°
2026-05-04 13:16 24.76198 56.42415 16889 ft 362 kts 309°
2026-05-04 13:16 24.77729 56.40236 16565 ft 359 kts 309°
2026-05-04 13:17 24.79253 56.38066 16221 ft 357 kts 309°
2026-05-04 13:17 24.80758 56.35899 15890 ft 355 kts 308°
2026-05-04 13:17 24.82231 56.33719 15553 ft 355 kts 307°
2026-05-04 13:17 24.83689 56.31539 15243 ft 352 kts 307°
2026-05-04 13:18 24.85135 56.29380 14912 ft 349 kts 308°
2026-05-04 13:18 24.86580 56.27231 14637 ft 349 kts 308°
2026-05-04 13:18 24.87965 56.25092 14527 ft 338 kts 303°
2026-05-04 13:18 24.89103 56.22888 14424 ft 323 kts 300°
2026-05-04 13:19 24.90176 56.20775 14313 ft 309 kts 301°
2026-05-04 13:19 24.90867 56.19428 14258 ft 300 kts 301°
2026-05-04 13:19 24.92203 56.16836 14086 ft 282 kts 301°
2026-05-04 13:19 24.93156 56.14987 13748 ft 276 kts 301°
2026-05-04 13:20 24.93999 56.13092 13081 ft 279 kts 293°
2026-05-04 13:20 24.94692 56.11027 12153 ft 294 kts 291°
2026-05-04 13:20 24.95366 56.08940 11644 ft 291 kts 291°
2026-05-04 13:20 24.96052 56.06815 11067 ft 290 kts 291°
2026-05-04 13:21 24.96727 56.04737 10585 ft 286 kts 291°
2026-05-04 13:21 24.97396 56.02692 10160 ft 280 kts 291°
2026-05-04 13:21 24.98029 56.00760 10017 ft 264 kts 291°
2026-05-04 13:21 24.98645 55.98885 9682 ft 258 kts 291°
2026-05-04 13:22 24.99262 55.97011 9186 ft 257 kts 291°
2026-05-04 13:22 24.99874 55.95154 8652 ft 258 kts 291°
2026-05-04 13:22 25.00483 55.93299 8257 ft 257 kts 291°
2026-05-04 13:22 25.01085 55.91463 7888 ft 253 kts 292°
2026-05-04 13:23 25.01688 55.89625 7519 ft 254 kts 291°
2026-05-04 13:23 25.02282 55.87817 7314 ft 255 kts 291°
2026-05-04 13:23 25.02889 55.85970 7086 ft 256 kts 291°
2026-05-04 13:23 25.03490 55.84132 6858 ft 255 kts 291°
2026-05-04 13:24 25.04093 55.82287 6630 ft 254 kts 292°
2026-05-04 13:24 25.04685 55.80474 6395 ft 249 kts 291°
2026-05-04 13:24 25.05267 55.78692 6165 ft 245 kts 292°
2026-05-04 13:25 25.06372 55.75305 5602 ft 226 kts 292°
2026-05-04 13:25 25.06912 55.73661 5371 ft 233 kts 291°
2026-05-04 13:25 25.07465 55.71973 5132 ft 234 kts 292°
2026-05-04 13:25 25.08020 55.70279 4911 ft 236 kts 291°
2026-05-04 13:26 25.08570 55.68589 4780 ft 233 kts 291°
2026-05-04 13:26 25.09125 55.66880 4648 ft 238 kts 293°
2026-05-04 13:26 25.09681 55.65196 4503 ft 229 kts 294°
2026-05-04 13:26 25.10089 55.64140 4395 ft 222 kts 298°
2026-05-04 13:27 25.10796 55.62656 4257 ft 215 kts 302°
2026-05-04 13:27 25.11544 55.61260 4114 ft 206 kts 303°
2026-05-04 13:27 25.12284 55.59920 4035 ft 206 kts 303°
2026-05-04 13:27 25.13029 55.58574 3773 ft 206 kts 303°
2026-05-04 13:28 25.13767 55.57244 3511 ft 196 kts 303°
2026-05-04 13:28 25.14462 55.55990 3270 ft 188 kts 303°
2026-05-04 13:28 25.15128 55.54788 3036 ft 181 kts 302°
2026-05-04 13:28 25.15789 55.53595 2789 ft 184 kts 302°
2026-05-04 13:29 25.16449 55.52402 2585 ft 180 kts 302°
2026-05-04 13:29 25.17089 55.51246 2346 ft 175 kts 301°
2026-05-04 13:29 25.17716 55.50114 2118 ft 167 kts 302°
2026-05-04 13:29 25.18309 55.49046 1924 ft 160 kts 302°
2026-05-04 13:30 25.18882 55.48010 1708 ft 157 kts 301°
2026-05-04 13:30 25.19413 55.47047 1528 ft 137 kts 301°
2026-05-04 13:30 25.19884 55.46203 1356 ft 122 kts 300°
2026-05-04 13:30 25.20319 55.45403 1211 ft 123 kts 299°
2026-05-04 13:31 25.20757 55.44572 1061 ft 124 kts 300°
2026-05-04 13:31 25.21207 55.43764 930 ft 125 kts 302°
2026-05-04 13:31 25.21668 55.42949 793 ft 123 kts 301°
2026-05-04 13:31 25.22109 55.42159 634 ft 120 kts 300°
2026-05-04 13:32 25.22558 55.41363 511 ft 124 kts 297°
2026-05-04 13:32 25.23006 55.40533 305 ft 124 kts 298°
2026-05-04 13:32 25.23456 55.39728 104 ft 124 kts 300°
2026-05-04 13:32 25.23881 55.38935 30 ft 106 kts 301°
2026-05-04 13:33 25.24182 55.38407 31 ft 54 kts 301°
2026-05-04 13:33 25.24320 55.38162 32 ft 39 kts 302°
2026-05-04 13:33 25.24447 55.37934 30 ft 30 kts 301°
2026-05-04 13:33 25.24550 55.37748 27 ft 27 kts 301°
2026-05-04 13:34 25.24602 55.37587 27 ft 21 kts 278°
2026-05-04 13:34 25.24611 55.37486 27 ft 3 kts 272°
2026-05-04 13:34 25.24613 55.37444 27 ft 0 kts 272°
2026-05-04 13:35 25.24606 55.37421 27 ft 6 kts 223°
2026-05-04 13:35 25.24507 55.37470 27 ft 15 kts 123°
2026-05-04 13:35 25.24447 55.37578 26 ft 16 kts 121°
2026-05-04 13:36 25.24385 55.37693 26 ft 18 kts 121°
2026-05-04 13:36 25.24312 55.37783 27 ft 16 kts 168°
2026-05-04 13:36 25.24219 55.37746 26 ft 18 kts 209°
2026-05-04 13:36 25.24120 55.37679 30 ft 14 kts 213°
2026-05-04 13:37 25.24024 55.37612 30 ft 18 kts 213°
2026-05-04 13:37 25.23962 55.37534 29 ft 13 kts 255°
2026-05-04 13:37 25.23980 55.37434 31 ft 15 kts 299°
2026-05-04 13:37 25.24035 55.37332 30 ft 16 kts 302°
2026-05-04 13:38 25.24095 55.37225 27 ft 17 kts 302°
2026-05-04 13:38 25.24151 55.37127 29 ft 12 kts 302°
2026-05-04 13:38 25.24183 55.37068 28 ft 3 kts 326°
2026-05-04 13:38 25.24214 55.37057 28 ft 1 kts
2026-05-04 13:39 25.24231 55.37067 29 ft 6 kts 33°
2026-05-04 13:39 25.24245 55.37078 26 ft 3 kts 32°
2026-05-04 13:39 25.24260 55.37088 27 ft 2 kts 32°
2026-05-04 13:39 25.24276 55.37099 29 ft 2 kts 31°
2026-05-04 13:40 25.24277 55.37100 29 ft 0 kts 31°